timestamp,wind_dir_avg,wind_spd_avg,wind_spd_max_dir,wind_spd_gust,battery_voltage,lat,long
2023-01-22 00:04:00+00:00,25.0,16.9,24.0,19.27,12.01,47.59359,-54.27349
2023-01-22 00:14:01+00:00,25.0,17.06,22.0,20.85,12.01,47.59359,-54.27349
2023-01-22 00:24:01+00:00,23.0,17.65,30.0,21.23,12.01,47.59359,-54.27349
2023-01-22 00:34:01+00:00,22.0,16.54,19.0,20.73,12.01,47.59359,-54.27349
2023-01-22 00:44:01+00:00,22.0,16.27,19.0,20.02,12.01,47.59359,-54.27349
2023-01-22 00:54:01+00:00,22.0,16.22,28.0,19.59,12.01,47.59359,-54.27349
2023-01-22 01:04:01+00:00,21.0,15.28,21.0,17.32,12.01,47.59359,-54.27349
2023-01-22 01:14:00+00:00,17.0,15.6,16.0,18.74,12.01,47.59359,-54.27349
2023-01-22 01:24:00+00:00,22.0,14.37,18.0,17.76,12.01,47.59359,-54.27349
2023-01-22 01:34:00+00:00,18.0,15.12,22.0,17.64,12.01,47.59359,-54.27349
2023-01-22 01:44:00+00:00,14.0,15.85,11.0,19.32,12.01,47.59359,-54.27349
2023-01-22 01:54:00+00:00,19.0,14.74,15.0,16.46,12.01,47.59359,-54.27349
2023-01-22 02:04:00+00:00,12.0,15.42,8.0,17.91,12.01,47.59359,-54.27349
2023-01-22 02:14:00+00:00,13.0,15.6,12.0,19.37,12.01,47.59359,-54.27349
2023-01-22 02:24:00+00:00,17.0,13.44,10.0,15.84,12.01,47.59359,-54.27349
2023-01-22 02:34:00+00:00,18.0,13.3,14.0,16.24,12.01,47.59359,-54.27349
2023-01-22 02:44:00+00:00,13.0,13.87,15.0,18.1,12.01,47.59359,-54.27349
2023-01-22 02:54:00+00:00,10.0,14.61,11.0,17.7,12.01,47.59359,-54.27349
2023-01-22 03:04:00+00:00,12.0,13.69,17.0,15.94,12.01,47.59359,-54.27349
2023-01-22 03:14:00+00:00,11.0,13.97,13.0,17.73,12.01,47.59359,-54.27349
2023-01-22 03:24:00+00:00,12.0,14.34,15.0,16.68,12.01,47.59359,-54.27349
2023-01-22 03:34:00+00:00,14.0,14.09,18.0,16.61,12.01,47.59359,-54.27349
2023-01-22 03:44:00+00:00,9.0,14.35,4.0,16.39,12.01,47.59359,-54.27349
2023-01-22 03:54:00+00:00,13.0,13.47,12.0,16.5,12.01,47.59359,-54.27349
2023-01-22 04:04:00+00:00,11.0,12.91,9.0,15.44,12.01,47.59359,-54.27349
2023-01-22 04:14:01+00:00,13.0,13.0,18.0,15.7,12.01,47.59359,-54.27349
2023-01-22 04:24:01+00:00,10.0,12.51,7.0,15.16,12.01,47.59359,-54.27349
2023-01-22 04:34:01+00:00,9.0,13.55,5.0,17.21,12.01,47.59359,-54.27349
2023-01-22 04:44:01+00:00,10.0,13.25,8.0,15.47,12.01,47.59359,-54.27349
2023-01-22 04:54:01+00:00,11.0,12.86,3.0,16.62,12.01,47.59359,-54.27349
2023-01-22 05:04:01+00:00,11.0,13.61,6.0,16.11,12.01,47.59359,-54.27349
2023-01-22 05:14:00+00:00,12.0,12.02,14.0,14.05,12.01,47.59359,-54.27349
2023-01-22 05:24:00+00:00,6.0,14.1,6.0,15.95,12.01,47.59359,-54.27349
2023-01-22 05:34:00+00:00,12.0,12.36,16.0,14.1,12.01,47.59359,-54.27349
2023-01-22 05:44:00+00:00,8.0,13.22,3.0,15.42,12.01,47.59359,-54.27349
2023-01-22 05:54:00+00:00,7.0,13.03,8.0,14.57,12.01,47.59359,-54.27349
2023-01-22 06:04:00+00:00,6.0,12.53,5.0,14.4,12.01,47.59359,-54.27349
2023-01-22 06:14:00+00:00,8.0,12.53,9.0,15.12,12.01,47.59359,-54.27349
2023-01-22 06:24:00+00:00,10.0,11.77,4.0,15.93,12.01,47.59359,-54.27349
2023-01-22 06:34:00+00:00,11.0,13.11,14.0,14.62,12.01,47.59359,-54.27349
2023-01-22 06:44:00+00:00,11.0,12.85,6.0,15.28,12.01,47.59359,-54.27349
2023-01-22 06:54:00+00:00,7.0,13.02,7.0,16.82,12.01,47.59359,-54.27349
2023-01-22 07:04:00+00:00,9.0,13.15,8.0,15.8,12.01,47.59359,-54.27349
2023-01-22 07:14:00+00:00,6.0,14.61,8.0,16.62,11.93,47.59359,-54.27349
2023-01-22 07:24:00+00:00,6.0,14.27,3.0,18.03,11.93,47.59359,-54.27349
2023-01-22 07:34:00+00:00,7.0,13.38,7.0,16.96,11.93,47.59359,-54.27349
2023-01-22 07:44:00+00:00,5.0,12.48,6.0,15.51,11.93,47.59359,-54.27349
2023-01-22 07:54:00+00:00,6.0,13.54,4.0,15.49,11.93,47.59359,-54.27349
2023-01-22 08:04:00+00:00,8.0,13.87,6.0,16.45,11.93,47.59359,-54.27349
2023-01-22 08:14:00+00:00,8.0,12.66,2.0,15.14,11.93,47.59359,-54.27349
2023-01-22 08:24:00+00:00,6.0,13.32,3.0,16.89,11.93,47.59359,-54.27349
2023-01-22 08:34:00+00:00,6.0,14.23,2.0,18.06,11.93,47.59359,-54.27349
2023-01-22 08:44:00+00:00,8.0,14.55,6.0,17.07,11.93,47.59359,-54.27349
2023-01-22 08:54:00+00:00,11.0,12.92,7.0,14.56,11.93,47.59359,-54.27349
2023-01-22 09:04:00+00:00,7.0,12.97,5.0,15.34,11.93,47.59359,-54.27349
2023-01-22 09:14:00+00:00,1.0,14.21,7.0,17.4,11.93,47.59359,-54.27349
2023-01-22 09:24:00+00:00,359.0,13.86,354.0,16.39,11.93,47.59359,-54.27349
2023-01-22 09:34:00+00:00,1.0,13.18,5.0,15.57,11.93,47.59359,-54.27349
2023-01-22 09:44:00+00:00,1.0,12.89,4.0,14.57,11.93,47.59359,-54.27349
2023-01-22 09:54:00+00:00,1.0,13.2,7.0,15.11,11.93,47.59359,-54.27349
2023-01-22 10:04:00+00:00,355.0,12.78,357.0,14.93,11.93,47.59359,-54.27349
2023-01-22 10:14:00+00:00,358.0,12.63,355.0,14.5,11.93,47.59359,-54.27349
2023-01-22 10:24:00+00:00,353.0,13.05,349.0,14.31,11.93,47.59359,-54.27349
2023-01-22 10:34:00+00:00,352.0,12.52,354.0,14.03,11.93,47.59359,-54.27349
2023-01-22 10:44:00+00:00,352.0,11.62,357.0,13.24,11.93,47.59359,-54.27349
2023-01-22 10:54:00+00:00,352.0,11.78,354.0,13.15,11.93,47.59359,-54.27349
2023-01-22 11:04:00+00:00,354.0,12.07,357.0,15.95,11.93,47.59359,-54.27349
2023-01-22 11:14:00+00:00,353.0,11.13,349.0,12.67,11.93,47.59359,-54.27349
2023-01-22 11:24:00+00:00,358.0,11.5,357.0,13.28,11.93,47.59359,-54.27349
2023-01-22 11:34:00+00:00,352.0,11.06,356.0,12.93,11.93,47.59359,-54.27349
2023-01-22 11:44:00+00:00,358.0,11.36,359.0,12.99,11.93,47.59359,-54.27349
2023-01-22 11:54:00+00:00,353.0,10.73,352.0,12.05,11.93,47.59359,-54.27349
2023-01-22 12:04:00+00:00,351.0,11.11,356.0,13.43,11.93,47.59359,-54.27349
2023-01-22 12:14:00+00:00,356.0,9.94,349.0,11.72,12.09,47.59359,-54.27349
2023-01-22 12:24:00+00:00,349.0,9.84,348.0,10.95,12.09,47.59359,-54.27349
2023-01-22 12:34:00+00:00,348.0,11.18,338.0,12.49,12.09,47.59359,-54.27349
2023-01-22 12:44:00+00:00,351.0,10.8,351.0,11.36,12.09,47.59359,-54.27349
2023-01-22 12:54:00+00:00,357.0,10.3,354.0,11.68,12.09,47.59359,-54.27349
2023-01-22 13:04:00+00:00,357.0,9.46,353.0,10.92,12.09,47.59359,-54.27349
2023-01-22 13:14:00+00:00,348.0,9.56,348.0,10.69,13.29,47.59359,-54.27349
2023-01-22 13:24:00+00:00,350.0,10.24,347.0,11.27,13.29,47.59359,-54.27349
2023-01-22 13:34:00+00:00,356.0,11.52,358.0,13.87,13.29,47.59359,-54.27349
2023-01-22 13:44:00+00:00,351.0,10.79,352.0,13.39,13.29,47.59359,-54.27349
2023-01-22 13:54:00+00:00,339.0,9.65,338.0,10.69,13.29,47.59359,-54.27349
2023-01-22 14:04:00+00:00,342.0,8.22,335.0,10.17,13.29,47.59359,-54.27349
2023-01-22 14:14:01+00:00,342.0,8.38,346.0,9.68,13.44,47.59359,-54.27349
2023-01-22 14:24:01+00:00,346.0,10.41,346.0,12.23,13.44,47.59359,-54.27349
2023-01-22 14:34:01+00:00,345.0,9.86,343.0,11.13,13.44,47.59359,-54.27349
2023-01-22 14:44:01+00:00,331.0,10.67,325.0,11.92,13.44,47.59359,-54.27349
2023-01-22 14:54:01+00:00,340.0,9.56,336.0,10.79,13.44,47.59359,-54.27349
2023-01-22 15:04:01+00:00,334.0,11.11,327.0,13.21,13.44,47.59359,-54.27349
2023-01-22 15:14:00+00:00,338.0,10.85,344.0,12.71,13.44,47.59359,-54.27349
2023-01-22 15:24:00+00:00,338.0,12.0,343.0,13.97,13.44,47.59359,-54.27349
2023-01-22 15:34:00+00:00,341.0,12.88,342.0,15.29,13.44,47.59359,-54.27349
2023-01-22 15:44:00+00:00,336.0,11.56,338.0,13.12,13.44,47.59359,-54.27349
2023-01-22 15:54:00+00:00,338.0,11.28,338.0,12.71,13.44,47.59359,-54.27349
2023-01-22 16:04:00+00:00,339.0,11.21,340.0,12.94,13.44,47.59359,-54.27349
2023-01-22 16:14:00+00:00,337.0,11.86,330.0,14.34,14.4,47.59359,-54.27349
2023-01-22 16:24:00+00:00,335.0,12.81,331.0,14.18,14.4,47.59359,-54.27349
2023-01-22 16:34:00+00:00,329.0,11.91,327.0,13.27,14.4,47.59359,-54.27349
2023-01-22 16:44:00+00:00,339.0,12.28,344.0,14.67,14.4,47.59359,-54.27349
2023-01-22 16:54:00+00:00,335.0,12.06,340.0,13.43,14.4,47.59359,-54.27349
2023-01-22 17:04:00+00:00,333.0,11.87,328.0,13.7,14.4,47.59359,-54.27349
2023-01-22 17:14:00+00:00,338.0,12.02,333.0,13.49,14.4,47.59359,-54.27349
2023-01-22 17:24:00+00:00,335.0,12.29,340.0,13.71,14.4,47.59359,-54.27349
2023-01-22 17:34:00+00:00,337.0,11.16,343.0,12.94,14.4,47.59359,-54.27349
2023-01-22 17:44:00+00:00,332.0,9.86,325.0,11.95,14.4,47.59359,-54.27349
2023-01-22 17:54:00+00:00,338.0,10.51,339.0,12.89,14.4,47.59359,-54.27349
2023-01-22 18:04:00+00:00,339.0,12.0,342.0,13.4,14.4,47.59359,-54.27349
2023-01-22 18:14:00+00:00,335.0,9.52,332.0,10.7,14.4,47.59359,-54.27349
2023-01-22 18:24:00+00:00,331.0,11.07,343.0,13.49,14.4,47.59359,-54.27349
2023-01-22 18:34:00+00:00,331.0,9.81,324.0,12.09,14.4,47.59359,-54.27349
2023-01-22 18:44:00+00:00,339.0,10.75,344.0,11.99,14.4,47.59359,-54.27349
2023-01-22 18:54:00+00:00,340.0,11.67,339.0,12.87,14.4,47.59359,-54.27349
2023-01-22 19:04:00+00:00,328.0,10.98,322.0,12.99,14.4,47.59359,-54.27349
2023-01-22 19:14:01+00:00,339.0,9.84,336.0,11.16,14.24,47.59359,-54.27349
2023-01-22 19:24:01+00:00,335.0,10.32,337.0,11.35,14.24,47.59359,-54.27349
2023-01-22 19:34:01+00:00,338.0,9.79,330.0,11.06,14.24,47.59359,-54.27349
2023-01-22 19:44:01+00:00,335.0,8.96,330.0,10.29,14.24,47.59359,-54.27349
2023-01-22 19:54:01+00:00,323.0,7.0,309.0,9.11,14.24,47.59359,-54.27349
2023-01-22 20:04:01+00:00,329.0,8.95,322.0,11.56,14.24,47.59359,-54.27349
2023-01-22 20:14:01+00:00,328.0,8.12,334.0,9.89,12.81,47.59359,-54.27349
2023-01-22 20:24:01+00:00,332.0,8.36,334.0,10.29,12.81,47.59359,-54.27349
2023-01-22 20:34:01+00:00,322.0,7.11,329.0,8.16,12.81,47.59359,-54.27349
2023-01-22 20:44:01+00:00,322.0,6.33,325.0,7.22,12.81,47.59359,-54.27349
2023-01-22 20:54:01+00:00,310.0,5.7,319.0,6.85,12.81,47.59359,-54.27349
2023-01-22 21:04:01+00:00,312.0,5.03,306.0,7.14,12.81,47.59359,-54.27349
2023-01-22 21:14:01+00:00,306.0,4.51,302.0,5.14,12.49,47.59359,-54.27349
2023-01-22 21:24:01+00:00,321.0,4.53,319.0,5.21,12.49,47.59359,-54.27349
2023-01-22 21:34:01+00:00,314.0,5.17,312.0,6.63,12.49,47.59359,-54.27349
2023-01-22 21:44:01+00:00,303.0,4.38,311.0,5.49,12.49,47.59359,-54.27349
2023-01-22 21:54:01+00:00,304.0,4.04,315.0,4.58,12.49,47.59359,-54.27349
2023-01-22 22:04:01+00:00,294.0,5.38,296.0,6.13,12.49,47.59359,-54.27349
2023-01-22 22:14:01+00:00,296.0,5.67,287.0,6.41,12.41,47.59359,-54.27349
2023-01-22 22:24:01+00:00,292.0,6.08,287.0,7.03,12.41,47.59359,-54.27349
2023-01-22 22:34:01+00:00,286.0,5.68,286.0,6.38,12.41,47.59359,-54.27349
2023-01-22 22:44:01+00:00,285.0,5.52,287.0,6.98,12.41,47.59359,-54.27349
2023-01-22 22:54:01+00:00,289.0,4.82,284.0,6.19,12.41,47.59359,-54.27349
2023-01-22 23:04:01+00:00,291.0,5.71,287.0,6.75,12.41,47.59359,-54.27349
2023-01-22 23:14:01+00:00,287.0,6.37,286.0,7.14,12.41,47.59359,-54.27349
2023-01-22 23:24:01+00:00,287.0,6.81,288.0,7.69,12.41,47.59359,-54.27349
2023-01-22 23:34:01+00:00,286.0,6.79,287.0,8.03,12.41,47.59359,-54.27349
2023-01-22 23:44:01+00:00,294.0,6.03,294.0,6.81,12.41,47.59359,-54.27349
2023-01-22 23:54:01+00:00,293.0,6.71,291.0,7.9,12.41,47.59359,-54.27349
